RH
43 44 45 46 47 47 48 48 48 47 46 45 44 41 38 34 30 26 20 13 6 3 3 6 10 10 9 8 8 8 8 9 9 9 10 11 12 13 15 17 18 19 20 21 22 23 25 26 27 29 30 31 31 32 31 30 28 24 21 19 20 23 28 33 38 41 44 47 50 52 54 55 57 60 62 64 66 66 65 63 62 69 79 85 87
45 47 48 49 49 50 52 52 52 51 50 50 49 47 45 40 35 30 25 19 10 5 3 4 9 12 10 9 8 8 8 9 10 10 11 12 12 13 15 18 19 20 20 21 22 23 24 26 27 28 29 31 32 31 31 31 30 29 27 23 21 20 22 25 29 33 36 39 43 45 48 50 50 53 56 58 60 61 63 62 59 61 69 80 85
47 48 49 49 51 52 54 55 55 55 54 53 54 53 51 47 41 36 31 25 17 9 5 3 7 12 12 10 8 8 8 9 10 10 12 13 13 14 16 17 19 20 21 21 22 22 23 25 26 27 28 28 29 30 31 31 30 31 30 28 26 23 21 21 22 26 29 32 35 37 40 43 45 47 49 52 54 56 59 60 60 58 62 74 80
47 48 51 51 52 53 55 57 56 56 57 56 56 56 55 53 49 43 38 32 24 15 8 4 5 10 13 12 9 8 8 9 10 11 12 13 14 16 17 18 19 20 21 22 22 23 23 24 25 26 27 27 27 28 29 30 31 30 30 29 28 27 25 23 21 21 23 25 28 30 32 35 38 40 42 45 47 50 54 55 58 57 58 69 74
46 47 49 51 52 53 54 56 56 55 57 56 57 59 58 58 56 51 45 39 32 23 13 6 3 6 13 15 12 9 9 9 10 12 13 12 14 17 18 19 20 20 21 22 23 24 24 24 25 26 27 27 27 27 27 28 29 29 30 30 29 29 28 26 24 23 21 21 22 24 26 28 31 34 36 39 41 42 47 49 53 55 55 65 75
43 43 45 46 47 50 50 52 52 52 54 54 56 59 60 62 63 59 54 47 39 31 21 11 4 3 9 16 16 12 10 10 10 12 14 14 14 16 19 20 22 22 23 24 24 25 26 25 26 27 28 28 28 29 28 28 28 28 29 29 29 29 28 28 27 27 25 22 20 20 22 23 25 28 31 34 36 37 41 43 47 51 51 56 71
35 35 36 37 38 41 43 45 46 46 49 51 54 58 61 64 66 65 62 56 47 38 28 17 8 3 5 14 20 17 12 10 10 11 14 16 16 16 19 21 22 24 24 26 27 28 29 29 28 29 29 30 30 31 31 31 31 30 30 29 29 29 28 28 28 29 29 26 24 20 19 20 20 22 24 27 30 32 35 39 42 47 49 49 57
27 27 29 30 32 34 36 38 39 42 46 49 53 57 60 63 66 66 67 63 55 46 35 23 13 5 3 8 18 22 18 13 11 11 13 16 18 18 18 20 22 24 25 27 29 30 32 33 33 33 32 32 32 32 32 33 34 34 34 34 32 31 30 28 28 28 29 29 29 25 20 18 18 19 20 21 25 27 29 34 38 42 47 48 48
26 25 26 27 29 31 33 33 36 40 45 49 53 57 59 62 65 66 69 68 63 56 44 31 18 9 5 4 11 22 25 20 14 12 12 14 18 20 19 20 22 24 26 27 29 31 33 35 35 36 37 37 36 36 35 34 34 35 37 38 37 37 35 32 30 28 29 29 29 28 25 22 19 17 17 18 20 23 25 27 31 36 41 47 47
26 26 25 27 29 31 32 33 36 40 43 49 53 57 61 63 66 67 69 71 69 65 57 43 27 16 9 4 5 16 26 27 21 15 13 13 16 20 22 22 23 25 26 27 29 31 33 36 37 37 38 39 40 40 39 38 37 36 38 40 41 41 41 39 37 33 30 28 28 28 28 26 22 19 17 17 16 18 21 22 24 29 34 42 47
30 29 28 29 30 32 34 34 37 40 43 49 53 58 62 65 68 69 70 73 72 72 68 58 42 26 15 8 4 8 19 28 29 22 16 13 15 19 22 24 25 26 28 29 30 31 33 35 37 39 39 40 42 42 43 42 41 40 40 41 43 44 45 43 41 39 36 32 29 27 27 27 26 23 20 18 17 15 17 20 20 23 28 34 42
40 41 39 38 37 36 37 36 38 40 43 48 53 58 63 66 70 71 72 74 74 75 75 70 60 41 25 15 7 4 10 21 30 30 22 16 15 18 22 25 26 28 30 31 32 32 33 35 37 39 41 41 43 44 44 44 44 44 44 45 45 46 47 46 44 41 39 36 33 30 28 26 26 26 24 21 19 16 15 17 17 18 22 27 35
49 50 50 50 50 48 46 44 44 44 45 49 54 59 64 67 70 73 74 76 75 75 76 76 72 58 40 25 14 6 5 13 24 33 31 22 16 17 21 25 27 29 30 32 34 34 34 35 37 39 41 42 43 45 46 46 45 46 49 50 49 48 48 48 47 45 38 32 31 32 31 29 27 25 26 24 22 20 17 15 15 16 17 20 28
57 57 58 58 60 60 59 58 56 55 54 55 58 62 65 67 71 74 77 78 76 75 76 78 77 71 56 36 20 11 7 8 16 28 35 31 21 17 19 24 26 28 30 31 33 34 34 35 36 37 39 40 41 44 46 47 47 47 50 54 54 51 48 48 50 48 42 31 25 26 30 32 32 28 26 25 24 23 20 17 15 14 15 16 19
65 66 67 67 68 68 68 68 68 68 68 68 69 71 72 72 75 76 79 81 79 77 77 79 80 78 68 49 29 18 11 7 10 20 32 37 31 21 18 23 27 27 27 29 30 31 32 33 34 35 37 39 39 41 44 47 48 49 51 56 58 55 50 49 51 50 47 37 25 21 25 30 35 34 30 27 26 24 23 20 18 15 13 14 14
72 73 74 75 75 75 76 76 75 76 78 79 80 82 83 82 83 82 83 84 84 82 80 81 83 82 76 61 40 25 17 12 10 14 25 36 39 32 22 20 25 27 27 26 27 27 28 29 32 34 36 37 38 39 42 45 48 50 52 56 60 60 54 51 53 53 51 43 29 20 21 29 36 39 36 31 28 26 24 22 21 18 15 13 13
62 69 73 77 78 78 79 81 82 83 84 85 86 88 90 91 92 92 91 91 90 88 86 85 86 84 80 71 53 34 22 16 12 13 19 30 39 40 33 24 22 26 28 27 26 25 25 25 26 30 34 36 38 39 40 43 48 51 53 56 60 62 59 55 54 54 54 49 37 23 19 28 38 42 41 37 31 28 26 24 21 20 18 15 13
43 51 59 67 72 75 77 79 84 87 89 89 90 91 92 93 96 97 98 98 96 94 92 90 89 87 84 77 65 46 28 20 16 14 17 23 33 41 42 35 26 24 26 28 27 26 26 25 23 24 28 34 38 40 40 42 47 52 55 56 59 62 62 60 57 55 57 55 45 30 19 25 39 45 45 41 36 31 28 26 24 21 19 17 15
40 40 43 49 55 63 70 74 80 87 90 90 90 91 92 94 95 97 99 100 99 99 97 95 92 90 88 83 73 57 38 27 21 18 16 19 26 36 44 45 38 30 27 27 28 28 28 28 25 23 24 29 36 41 42 42 45 52 57 57 58 61 63 64 60 57 58 58 53 41 24 21 33 44 46 43 39 35 31 28 26 23 21 18 16
52 45 41 40 42 50 62 72 78 82 86 87 88 89 89 91 92 94 96 98 99 100 99 98 95 93 92 88 79 66 50 36 27 21 17 16 21 29 39 47 48 42 35 29 28 30 31 31 29 27 25 25 32 40 44 45 45 51 59 60 58 60 63 65 63 59 59 60 58 52 36 21 23 35 44 44 39 35 33 31 29 27 24 20 17
60 56 49 44 41 45 56 69 77 80 82 84 86 87 87 88 89 90 93 94 97 100 100 99 98 96 94 90 84 74 59 45 34 26 20 17 18 24 33 42 49 51 48 40 34 32 33 35 32 30 29 26 30 39 45 47 47 51 59 62 59 59 62 65 65 62 60 61 61 59 49 30 19 22 33 40 40 36 33 31 31 31 29 26 22
58 62 61 58 54 51 52 57 65 71 76 81 84 86 86 87 87 88 90 91 94 97 99 100 99 98 97 94 90 81 67 53 43 33 23 18 18 21 28 37 46 52 55 52 46 41 39 40 38 35 34 31 31 39 47 50 50 52 59 63 60 60 62 64 66 65 62 61 62 62 58 44 27 18 19 26 33 37 36 33 31 31 31 30 29
50 58 63 65 65 63 61 60 61 63 66 72 79 83 85 86 87 87 88 91 93 95 98 100 100 100 99 98 94 86 73 61 51 41 28 20 18 20 25 32 41 50 55 56 55 53 50 47 45 43 40 36 35 41 50 55 56 55 59 63 62 60 62 63 65 67 65 63 65 65 62 53 39 27 19 16 18 23 29 33 34 33 33 32 32
46 53 56 58 60 64 67 69 71 71 71 72 73 77 81 86 87 87 87 91 94 95 98 100 100 100 100 100 97 90 78 65 56 46 33 23 19 20 22 28 36 44 52 57 59 60 59 57 53 50 46 42 39 45 56 61 62 60 59 64 65 62 63 64 65 68 68 66 67 67 65 61 50 37 28 21 16 13 14 18 24 29 32 34 34
47 49 49 50 52 55 60 66 71 74 77 80 80 78 78 82 86 87 88 90 93 95 97 99 100 100 100 100 99 94 82 69 60 49 36 27 22 20 22 25 31 39 48 55 58 61 64 64 61 56 51 46 44 52 63 68 68 65 61 65 67 65 65 66 65 67 68 69 71 70 67 64 59 48 36 28 23 18 14 10 10 14 19 25 30
48 46 45 47 49 51 56 61 64 68 71 76 81 83 83 82 83 85 88 90 92 94 95 98 100 99 99 100 100 97 88 74 63 53 41 31 26 23 22 24 30 38 47 54 57 61 66 69 67 61 55 50 50 59 69 72 72 68 64 67 70 68 69 69 67 68 69 70 74 74 68 65 63 57 46 35 29 24 21 17 12 9 8 9 13
47 48 49 49 50 51 53 55 56 57 59 62 68 76 83 86 85 85 88 90 92 93 95 99 99 97 98 100 100 99 94 80 66 56 45 35 29 26 23 24 29 35 46 57 61 63 66 70 71 66 58 53 57 67 74 76 75 70 67 72 73 71 71 71 69 69 69 69 72 74 72 66 64 62 55 45 35 29 26 23 20 16 11 8 6
47 53 54 52 53 52 51 51 50 49 50 52 55 61 72 83 86 86 88 91 93 95 97 100 100 98 99 100 99 100 98 86 70 59 49 38 33 29 25 24 27 33 45 58 64 65 67 70 73 69 60 57 64 75 80 79 76 71 70 76 77 74 73 72 71 70 69 68 69 71 72 69 66 65 63 56 46 37 31 27 25 22 18 13 9
51 54 55 53 51 50 48 48 48 48 47 47 48 53 63 76 83 86 87 92 96 98 99 101 101 100 99 100 100 100 100 92 77 64 53 42 36 32 26 23 24 29 40 54 63 66 66 70 74 71 62 60 71 83 86 83 76 70 73 80 80 77 75 72 71 71 70 70 69 70 71 70 68 67 65 64 59 49 39 33 29 26 24 20 16
55 55 53 50 47 46 47 47 48 49 49 48 49 54 63 75 85 89 91 95 100 101 100 101 101 100 100 100 99 100 100 95 84 70 57 47 41 34 26 23 23 25 34 48 60 66 66 69 75 74 64 62 76 89 91 85 77 71 75 83 83 80 77 72 70 71 73 74 73 72 70 68 68 68 67 67 67 62 54 45 36 30 27 26 23
55 53 50 45 44 46 47 49 51 53 55 55 55 59 69 83 93 95 95 98 101 101 100 100 101 101 100 100 100 100 100 97 89 76 62 52 45 37 29 24 22 23 29 42 56 64 67 68 73 75 67 64 77 92 92 87 80 73 76 85 86 81 77 72 70 72 76 79 80 77 74 71 70 70 69 68 69 68 65 60 50 41 34 30 29
54 52 48 45 45 46 47 49 51 53 56 58 61 64 73 87 98 99 98 100 100 100 100 100 100 100 100 100 100 100 100 99 92 80 68 57 48 41 33 25 21 22 25 35 51 64 68 69 72 76 72 68 76 89 91 87 83 77 79 87 89 84 77 74 73 74 79 84 85 81 77 75 75 74 72 72 72 73 72 70 65 57 47 39 34
54 51 48 46 45 45 44 44 44 46 48 52 60 66 72 81 90 95 99 100 99 99 100 99 100 100 99 100 100 99 100 100 95 84 72 62 52 45 37 27 21 20 21 29 46 61 69 71 72 76 77 73 76 84 88 87 85 81 82 88 91 86 79 73 73 75 78 81 83 82 79 79 80 80 79 77 76 75 75 74 72 69 65 57 47
53 49 47 46 45 43 42 39 38 38 38 41 48 58 69 74 76 84 96 100 99 99 100 100 100 100 99 100 100 100 100 100 97 89 77 67 57 47 38 30 24 20 19 26 40 55 67 72 73 75 79 78 79 83 84 84 84 85 86 90 92 88 80 72 69 74 78 79 82 85 86 87 88 88 88 86 81 78 76 75 73 73 73 71 67
51 48 46 45 44 43 41 38 36 34 33 33 35 43 58 69 72 78 89 95 97 100 100 100 100 100 100 100 100 99 100 101 99 93 81 71 60 50 40 34 27 21 19 24 35 49 63 72 74 75 78 82 86 88 86 83 85 89 91 92 93 91 83 73 69 73 79 82 85 89 93 95 96 96 95 93 88 82 78 77 77 77 77 75 76
49 48 48 49 48 47 46 43 40 37 34 32 32 34 44 60 72 77 80 86 93 98 100 100 100 100 100 100 100 100 100 101 101 96 85 74 63 52 43 37 30 23 21 24 32 44 56 68 76 77 78 83 90 94 92 89 91 95 95 93 94 93 86 76 71 74 80 84 85 89 94 97 98 99 100 98 95 87 80 76 76 78 78 77 78
52 54 53 55 55 55 54 51 46 43 39 36 35 34 37 51 71 80 80 84 92 97 100 100 99 100 101 99 99 100 100 100 101 98 89 78 66 55 47 40 32 25 22 23 29 38 50 64 75 79 80 84 91 96 97 96 98 102 101 95 93 94 90 82 76 74 79 87 89 87 90 93 96 97 98 100 99 94 87 81 79 78 77 76 80
56 59 58 60 61 59 58 56 51 48 45 41 39 38 38 45 67 84 84 83 90 97 100 100 99 100 100 100 99 100 100 100 101 100 93 81 69 58 50 42 34 27 22 21 25 34 46 61 74 81 82 84 91 98 99 98 100 104 104 101 97 94 92 88 82 76 78 88 94 92 89 88 90 94 97 100 102 98 92 87 85 84 78 72 78
59 62 63 64 65 63 62 59 56 52 49 46 42 42 41 43 60 82 87 84 92 100 100 99 100 99 100 100 100 100 100 99 100 101 95 84 72 61 52 45 37 29 22 19 23 32 43 57 71 81 83 84 92 100 100 99 102 103 103 103 97 91 89 89 88 83 81 87 95 99 96 90 86 88 93 99 103 102 97 89 84 82 76 71 78
66 69 72 72 70 69 67 63 60 56 51 48 44 42 44 46 55 73 88 93 97 101 100 98 99 100 100 100 100 101 100 99 100 101 97 88 75 63 55 49 40 29 22 20 23 31 41 53 67 79 87 88 93 101 102 102 103 102 101 101 95 88 87 90 91 88 84 86 91 95 98 96 89 84 86 95 101 102 101 97 89 79 71 70 79
76 78 80 80 77 75 72 66 62 57 50 46 44 42 45 51 56 68 89 100 99 98 100 100 99 100 100 99 100 101 100 100 100 100 99 91 77 65 58 52 41 30 23 21 23 30 40 52 64 77 89 93 96 100 103 103 103 101 101 102 98 92 92 93 93 90 86 85 86 88 90 92 90 87 92 99 97 90 91 97 96 89 80 77 80
87 87 86 84 81 77 73 66 61 56 47 42 42 41 43 53 63 73 87 99 100 99 100 100 99 100 100 99 99 100 100 100 100 100 100 92 79 68 61 52 41 31 23 21 24 30 41 54 64 75 87 97 99 101 103 104 103 101 101 102 99 97 97 97 95 92 90 88 89 88 84 83 84 88 96 100 95 87 85 87 90 92 92 91 87
95 93 89 85 80 75 70 65 61 56 47 41 41 41 43 55 71 82 87 94 100 100 100 100 100 100 100 100 100 99 99 100 100 100 100 94 82 71 62 51 41 32 24 21 24 31 42 56 66 76 87 96 102 103 103 104 105 104 102 100 98 96 97 98 97 96 95 93 91 89 86 85 87 88 89 90 90 91 89 82 79 82 88 92 92
96 92 86 81 77 72 68 66 63 58 50 45 46 47 49 60 77 90 94 96 99 100 100 100 100 100 100 100 100 100 100 100 100 100 101 95 85 73 62 51 42 33 25 23 25 31 43 56 68 80 89 95 101 104 103 103 104 103 100 97 96 96 97 98 97 95 94 93 91 91 91 92 92 89 86 84 83 85 84 80 78 78 80 84 88
90 83 77 73 71 68 66 65 64 60 54 52 56 61 66 74 86 96 99 100 100 100 100 100 99 100 101 100 99 100 100 100 100 101 101 97 87 75 63 52 42 33 27 24 25 32 46 57 69 83 93 97 100 101 101 102 103 102 98 95 95 95 95 94 93 90 90 91 92 95 95 94 93 91 88 85 83 82 81 78 75 74 74 80 86
78 70 65 64 61 59 59 61 61 59 58 63 74 82 88 91 96 99 100 100 100 100 100 100 100 100 100 100 100 100 99 100 100 100 101 99 89 77 65 52 41 33 28 26 27 35 48 58 68 81 93 98 100 100 100 100 99 98 97 96 96 96 96 96 95 92 92 93 96 98 98 94 93 91 88 86 82 80 78 75 72 70 72 79 86
69 61 56 55 52 52 54 58 62 65 70 79 91 97 99 99 99 100 100 99 100 100 99 100 100 100 100 100 100 100 99 100 100 99 101 100 91 79 66 53 41 34 30 28 30 39 51 61 68 78 89 96 100 100 97 95 96 99 102 101 99 99 98 96 93 89 89 91 94 94 92 89 88 87 85 83 80 77 76 76 75 74 74 80 88
71 62 58 59 61 64 68 75 81 86 90 94 98 100 100 100 99 100 100 100 100 100 100 100 99 100 100 100 100 100 99 100 100 99 101 101 93 81 68 54 42 35 31 30 33 41 52 61 68 76 83 90 96 95 90 91 96 99 99 96 93 90 87 85 84 84 85 87 88 86 85 84 85 85 84 83 81 80 80 81 82 81 81 85 91
73 68 71 79 85 89 93 96 98 99 99 99 99 100 100 100 100 100 100 99 100 100 100 100 100 100 100 100 100 100 99 100 100 99 101 101 94 83 70 56 43 37 33 31 33 40 50 58 67 75 79 83 88 87 85 87 91 92 90 87 85 83 83 85 85 83 84 85 85 85 86 87 88 89 88 88 88 88 88 90 91 92 92 93 96
69 78 87 94 98 100 100 100 100 100 100 100 100 100 100 100 100 100 100 99 100 100 99 100 100 99 100 100 100 100 100 100 100 99 101 101 95 84 71 57 45 38 34 30 30 37 46 55 65 73 77 79 84 86 86 87 89 90 89 88 87 87 90 90 87 85 87 89 91 92 94 95 96 96 94 93 93 93 95 98 99 100 100 101 101
78 92 98 100 101 100 99 100 101 100 100 100 100 99 100 100 100 100 100 100 100 100 100 100 100 99 100 100 100 100 100 100 100 100 101 101 96 85 72 59 47 39 33 28 27 33 42 51 60 70 76 79 83 87 90 92 94 96 95 92 92 93 94 91 89 91 95 98 99 99 99 100 101 102 100 98 96 95 97 100 102 102 102 103 102
Wind_Speed
30 31 32 34 35 35 36 37 38 39 40 42 44 45 46 46 47 47 47 45 44 42 41 39 36 34 33 33 34 34 34 34 33 32 32 31 31 31 31 32 31 31 31 30 29 28 27 28 28 28 30 32 34 37 39 40 41 42 43 45 46 46 47 49 50 51 53 54 54 52 49 48 48 48 48 47 47 47 47 49 51 52 51 49 48
31 31 32 34 35 36 37 37 38 39 40 42 44 45 46 46 46 47 47 46 44 43 41 39 37 35 34 34 34 33 34 33 31 31 30 30 29 29 30 31 30 30 29 29 27 26 25 25 26 26 27 29 31 34 36 39 40 41 43 44 45 47 47 48 50 51 53 55 56 55 52 50 50 50 50 48 47 47 47 47 49 52 53 52 50
32 32 33 35 36 37 37 37 38 39 40 42 43 44 45 46 47 47 47 46 44 43 42 40 38 36 35 35 35 34 34 33 31 30 29 29 28 28 29 30 30 28 28 27 26 25 24 23 23 24 25 27 29 31 34 37 38 40 42 44 45 46 47 48 50 51 53 54 55 56 56 53 51 51 53 52 51 49 47 47 47 49 52 53 52
33 34 34 36 37 37 38 38 39 39 40 41 43 44 44 45 46 47 47 46 45 43 42 41 38 37 36 35 36 35 34 33 32 30 28 27 27 27 27 28 29 28 27 26 25 24 23 22 22 22 23 24 26 28 31 34 36 38 40 42 44 45 46 48 49 51 53 54 55 56 57 57 54 52 52 53 54 53 50 49 48 47 50 53 55
35 35 35 36 37 38 38 38 39 39 40 41 42 43 44 45 46 47 47 47 46 44 43 41 39 38 37 36 36 36 35 34 33 31 29 27 26 26 26 26 27 27 26 25 24 23 23 22 21 21 21 22 23 24 27 29 33 35 38 40 42 44 46 47 47 49 51 54 56 57 57 58 58 55 53 53 53 55 54 52 50 48 48 52 56
36 37 37 38 38 39 39 39 39 39 40 41 42 43 43 44 45 47 47 47 46 45 43 42 40 38 37 36 36 36 35 35 34 33 31 29 27 26 25 25 26 26 25 24 23 22 22 22 21 21 21 21 21 22 23 25 27 29 32 35 38 41 44 46 46 47 49 52 55 57 58 59 59 58 57 55 53 53 54 54 53 50 48 50 55
37 38 39 39 40 40 40 40 40 40 40 41 42 42 43 44 45 46 47 47 46 46 44 42 41 39 37 36 36 36 35 35 34 33 32 30 28 27 26 25 24 25 24 23 22 21 21 21 21 21 21 21 21 21 22 22 23 24 27 30 33 36 40 43 45 45 46 49 52 55 58 59 60 60 59 59 56 53 52 52 54 52 49 49 52
39 39 40 40 41 41 41 41 41 41 40 41 41 42 43 43 44 45 46 47 47 46 45 43 42 40 38 36 35 36 36 35 35 34 33 32 30 28 27 26 25 24 24 23 22 21 20 20 20 20 20 21 22 22 22 22 23 23 24 26 29 32 35 39 42 44 45 46 49 52 55 58 60 61 61 61 60 57 53 51 52 53 52 49 50
40 41 42 42 42 42 43 43 42 41 41 41 41 41 42 43 44 45 45 46 47 46 45 43 43 42 40 37 36 36 36 36 35 34 34 33 31 30 28 27 26 25 24 23 23 22 21 20 20 20 20 21 21 22 23 23 23 24 24 25 27 29 32 36 39 42 44 45 47 49 53 56 58 61 62 63 63 62 58 53 51 53 53 51 50
42 43 43 43 43 43 44 44 43 42 42 42 42 42 42 43 44 44 45 46 46 47 46 44 43 43 41 39 37 36 36 36 36 35 34 34 32 31 30 28 27 26 25 24 24 23 22 21 21 21 21 21 22 22 23 24 24 25 25 26 27 28 30 33 36 39 43 45 47 49 51 53 56 58 61 63 64 64 63 58 53 52 53 52 51
44 45 45 44 44 44 45 45 44 44 43 43 42 42 43 43 44 44 45 46 46 47 47 45 43 43 42 40 38 37 36 36 36 35 35 35 34 32 31 29 28 27 27 26 25 25 24 24 23 22 22 22 22 23 23 24 24 25 26 26 27 28 30 31 34 36 40 44 46 49 50 52 54 56 59 62 64 65 65 63 59 55 54 53 52
45 45 46 45 45 45 45 45 45 45 44 44 43 43 43 43 44 44 44 45 47 47 47 46 44 43 42 42 40 38 37 36 36 35 35 35 35 34 32 31 29 28 28 27 27 26 26 26 25 25 24 24 24 24 24 24 25 25 26 27 27 28 30 31 32 34 36 39 43 47 49 51 53 55 57 59 62 64 65 66 64 59 57 54 52
45 46 47 46 45 46 46 46 46 46 46 45 44 44 44 44 44 44 44 45 47 47 47 47 45 43 42 42 41 39 38 37 36 36 36 36 36 35 34 32 31 30 29 28 28 28 27 27 27 27 26 26 25 25 26 26 26 26 26 27 28 29 30 30 31 32 33 35 38 42 46 50 52 54 56 57 59 62 64 66 66 63 60 57 53
44 46 46 47 46 46 46 47 47 47 47 46 46 45 45 45 45 44 44 45 46 47 47 47 46 44 42 41 41 40 38 37 37 36 36 37 36 36 35 33 32 31 30 30 29 29 28 28 28 28 28 27 27 26 27 27 27 27 27 28 29 30 30 30 30 32 32 33 34 37 41 46 50 53 55 56 57 59 62 64 65 65 63 60 57
44 45 46 46 46 46 46 47 47 47 47 47 47 46 46 46 45 45 44 45 46 46 46 46 46 45 43 41 41 40 39 38 37 36 37 37 37 37 37 35 33 32 32 31 31 30 30 29 29 29 29 29 28 28 27 27 28 28 28 29 30 30 30 30 30 31 32 32 33 34 37 41 47 51 53 55 56 57 59 61 63 65 64 62 60
44 44 45 46 46 47 47 47 47 48 47 48 47 47 48 47 46 46 45 45 45 46 46 45 46 45 43 41 40 40 40 39 37 37 37 38 38 38 37 37 36 34 33 33 32 31 31 30 29 29 30 30 30 29 28 28 28 28 28 29 31 31 30 29 29 30 31 30 31 32 35 38 41 47 51 54 55 56 57 58 60 62 64 63 61
43 43 44 44 45 46 47 47 47 48 48 48 48 48 48 48 48 47 46 45 45 45 45 45 45 45 43 41 39 39 40 39 38 37 37 38 38 39 38 38 38 37 36 35 34 33 32 31 31 30 30 30 30 30 29 28 28 27 28 29 31 31 30 28 29 29 29 29 29 29 31 34 37 41 46 50 54 55 55 56 57 58 60 62 61
45 44 43 42 43 43 45 46 47 47 48 48 48 49 49 49 49 48 48 47 46 46 45 44 45 44 43 41 39 38 39 39 39 38 38 38 38 39 39 38 38 38 38 37 36 35 34 33 32 31 31 31 30 31 30 29 28 27 27 29 30 31 30 28 28 28 29 28 28 27 28 30 32 35 40 45 50 53 54 54 55 56 56 58 59
48 48 46 44 44 42 42 43 44 45 46 47 49 49 49 49 49 49 49 48 48 48 46 45 45 44 43 41 39 38 38 38 38 38 38 37 37 38 39 39 39 39 39 39 38 37 35 35 34 33 32 32 31 31 31 30 29 27 27 28 29 30 29 28 27 27 27 28 27 25 25 25 26 29 34 39 45 49 51 52 52 53 54 55 56
51 51 50 48 46 44 42 41 41 42 43 45 48 48 49 49 49 49 49 49 50 50 49 48 46 44 43 42 40 38 37 37 38 38 37 37 36 37 38 39 39 39 40 40 39 38 36 36 36 35 34 33 32 31 31 31 29 27 27 28 28 29 29 28 27 26 26 27 26 24 23 22 22 24 27 33 39 44 48 50 50 51 52 52 53
52 50 50 49 47 45 44 42 41 41 41 43 45 47 48 48 48 49 48 49 50 50 51 50 48 46 43 42 41 39 37 37 37 37 37 36 35 35 37 38 40 40 40 40 39 38 37 36 37 36 35 34 32 32 31 31 30 28 27 27 27 27 28 27 27 26 25 25 25 23 22 21 20 20 21 25 32 38 43 47 48 49 50 51 51
53 50 49 48 47 46 45 44 43 44 44 44 44 45 46 47 48 48 48 49 49 50 51 51 50 48 45 42 41 39 38 37 37 36 36 35 35 35 35 37 39 39 40 40 39 37 37 36 36 36 36 34 32 32 31 31 30 29 28 27 27 26 26 26 26 25 24 24 23 22 21 21 20 18 18 19 24 29 36 41 45 47 48 49 50
54 52 51 50 49 48 47 47 46 47 48 47 46 46 46 46 47 48 49 49 49 50 50 50 50 49 47 44 42 40 38 37 37 36 35 35 35 34 35 35 37 38 39 39 38 37 36 36 35 35 35 34 33 31 31 30 29 29 28 27 26 26 25 24 24 24 23 23 22 22 21 20 19 18 17 17 18 21 26 32 38 41 44 46 48
55 52 52 52 51 51 50 49 48 48 49 48 48 47 46 45 45 47 49 49 50 50 50 49 49 49 48 45 42 40 38 37 36 36 35 35 35 34 34 34 35 36 38 38 38 37 36 35 34 34 34 33 33 31 30 30 29 29 29 27 25 25 24 23 23 23 23 22 21 20 20 19 18 18 17 17 18 18 20 24 29 33 37 41 44
54 53 54 53 53 53 52 52 50 50 50 49 49 49 48 46 44 45 47 49 50 50 50 50 49 49 49 47 43 41 39 37 36 35 35 34 34 34 34 34 34 34 35 37 38 37 36 35 34 33 32 32 32 31 30 29 29 29 28 26 25 24 23 22 22 21 21 21 20 19 19 19 17 17 17 18 18 19 19 21 23 26 30 33 36
54 54 55 54 54 53 53 53 53 52 51 49 49 49 50 50 48 46 46 48 50 50 50 49 48 48 49 48 45 42 40 37 35 35 34 34 34 34 34 33 33 33 34 34 36 37 36 36 34 32 31 31 31 30 29 28 28 29 27 25 25 24 22 22 21 21 21 20 19 19 18 18 17 16 16 18 19 19 20 20 21 23 25 27 30
54 54 54 54 53 52 52 52 52 52 51 50 49 48 48 50 50 49 47 48 49 49 49 49 47 47 48 47 46 44 41 37 35 35 34 33 34 34 33 33 33 33 33 33 34 35 36 35 33 31 30 30 30 29 28 27 28 28 26 24 25 24 22 22 21 21 20 20 19 18 18 17 16 15 15 16 18 19 20 20 21 21 22 24 27
57 56 55 55 54 54 54 53 52 52 51 50 50 49 48 48 49 49 48 48 48 49 49 48 46 45 46 46 46 45 42 37 35 35 34 33 33 33 33 32 32 32 32 32 32 34 35 34 32 30 29 29 29 28 27 27 28 27 25 24 24 24 23 22 22 22 21 20 20 19 18 16 15 15 14 15 16 18 19 20 21 21 22 23 24
59 59 58 58 58 57 57 55 54 53 52 51 51 50 49 48 48 48 47 47 47 48 49 47 45 43 44 46 46 45 42 37 35 34 34 33 33 33 32 32 31 31 31 31 31 32 33 32 31 30 29 29 28 27 26 27 27 25 23 23 24 24 24 22 21 21 21 19 19 19 18 17 15 15 14 13 14 16 18 19 21 22 22 23 23
61 61 61 61 60 59 57 55 54 53 52 52 52 51 51 50 49 48 46 45 45 48 48 46 43 42 43 44 45 45 42 38 35 34 34 34 33 32 32 31 30 30 30 29 29 30 31 31 30 29 29 28 27 26 26 26 26 24 22 23 24 24 24 23 21 21 20 19 18 18 18 18 16 15 14 13 13 14 15 17 20 22 23 23 23
63 63 63 62 60 59 57 56 55 53 52 52 52 52 52 51 50 49 47 45 45 47 47 44 42 41 41 43 44 44 42 39 35 34 34 34 34 32 31 31 30 29 29 29 28 28 29 29 29 29 28 28 27 26 27 26 26 24 22 23 24 24 24 23 20 20 21 21 20 19 18 17 17 16 15 13 13 13 13 14 17 20 22 23 23
63 62 62 61 60 59 58 57 56 55 54 54 53 53 52 51 51 51 49 47 47 47 46 44 41 40 40 41 42 43 42 39 35 34 34 34 34 33 31 31 30 29 29 28 27 27 27 28 28 28 28 28 27 28 28 27 26 24 23 24 25 25 24 22 20 20 21 22 23 22 19 17 16 16 15 14 13 13 13 13 14 17 20 22 23
61 60 59 59 59 59 58 57 57 56 56 55 55 54 53 52 51 51 50 49 49 49 47 44 41 39 39 40 42 42 41 38 35 33 33 34 33 32 32 31 31 29 28 27 26 26 26 27 28 27 28 28 28 29 29 28 27 25 24 25 26 26 24 22 20 18 17 19 21 20 18 16 16 16 16 16 15 14 14 14 13 13 15 18 21
57 57 57 57 59 59 59 58 58 57 57 57 56 55 54 54 52 51 50 49 50 50 48 44 40 38 38 39 41 42 40 38 35 33 33 33 33 32 32 32 31 30 28 27 26 25 25 26 27 27 27 28 28 29 30 29 28 27 25 26 28 28 26 23 19 15 14 14 15 16 16 15 16 16 16 17 17 16 16 16 14 13 12 14 17
56 56 57 58 60 60 60 60 59 59 59 58 58 56 55 54 52 51 50 49 49 50 48 44 40 37 37 38 40 40 39 37 35 33 32 32 32 32 32 31 31 30 28 27 26 25 25 25 26 26 26 27 28 29 30 30 29 28 27 27 29 29 28 24 19 16 14 13 13 14 14 14 15 15 16 18 18 18 18 17 15 14 14 13 13
55 56 57 58 59 60 60 60 59 59 59 58 58 57 56 54 51 49 49 48 48 49 47 44 39 37 37 38 38 38 37 35 34 33 32 31 31 31 31 31 31 29 28 27 26 25 25 25 26 26 25 26 28 29 30 30 30 29 29 29 30 31 29 26 21 18 16 15 15 14 15 16 15 16 16 18 19 19 19 18 16 16 16 14 11
54 55 56 57 58 59 60 61 60 60 59 59 59 58 57 54 50 48 48 47 47 48 46 42 39 37 38 37 36 36 35 34 33 32 31 31 31 31 31 31 30 28 27 26 26 25 25 24 25 25 25 25 27 28 29 29 30 30 30 30 30 31 30 26 23 20 17 17 18 17 16 17 17 17 17 18 20 21 21 19 18 18 18 15 10
55 57 58 59 60 61 62 63 63 61 60 59 59 59 58 56 50 46 45 46 47 46 44 41 39 40 39 36 34 34 34 33 32 31 31 30 30 30 31 31 30 28 26 26 25 25 24 24 24 24 24 24 25 27 27 28 29 30 30 31 32 33 31 27 25 23 19 18 20 20 19 19 18 18 18 19 20 23 24 22 20 20 20 16 11
59 59 60 61 63 64 64 65 64 63 61 60 60 60 59 57 52 47 45 45 46 45 43 41 42 43 40 35 32 33 34 33 31 30 30 30 29 29 30 30 29 27 26 25 25 24 24 24 24 24 24 23 23 25 25 26 27 29 29 31 34 34 31 27 25 24 22 20 21 22 22 22 20 19 18 19 20 23 26 26 24 24 23 17 13
61 61 62 63 64 65 66 67 67 65 63 61 61 60 59 57 53 48 45 45 46 46 45 44 44 43 39 33 30 31 33 33 31 30 29 29 29 29 29 29 28 27 25 24 24 23 23 23 23 23 23 23 22 23 24 24 25 27 29 32 34 34 31 27 26 26 25 23 23 23 23 23 23 21 19 19 21 23 26 28 29 28 24 17 16
63 63 64 65 66 67 68 68 68 67 65 63 62 61 60 58 54 49 45 44 45 46 46 45 45 43 38 31 29 30 32 32 31 30 29 28 28 28 28 27 27 26 24 23 23 22 22 23 23 23 23 23 23 22 23 23 24 26 29 32 33 33 31 29 28 27 27 26 24 24 24 24 24 23 21 22 25 26 26 28 30 31 29 23 21
65 66 67 68 69 70 69 70 69 68 67 65 63 61 60 57 53 48 45 45 45 47 47 45 45 43 37 30 28 29 31 30 30 30 28 27 27 27 26 26 26 25 23 22 22 21 20 21 22 22 22 23 23 22 22 23 24 25 27 29 31 32 31 30 29 28 27 27 26 25 25 23 23 23 23 25 28 28 27 28 28 29 30 29 28
69 70 70 71 72 72 71 70 69 68 68 66 64 62 60 57 52 47 45 45 45 47 47 46 45 43 36 29 27 29 29 29 29 29 28 27 27 26 25 25 24 24 23 22 21 19 19 20 21 21 22 22 23 22 22 22 23 24 26 28 30 30 29 29 29 28 27 27 27 26 25 24 25 25 26 26 28 28 30 30 29 28 30 31 31
72 74 74 74 74 74 72 70 69 68 68 67 64 62 59 56 50 45 44 45 45 47 47 46 46 43 35 29 27 28 27 27 28 28 28 27 26 25 24 24 24 23 22 21 20 19 18 19 19 20 21 22 22 22 22 22 23 25 27 28 29 29 29 29 29 29 28 27 27 27 27 27 28 28 28 27 28 29 30 30 30 30 30 31 31
76 76 75 76 76 76 75 72 69 69 68 66 63 60 57 54 49 44 43 43 45 47 47 46 45 42 35 29 27 26 26 26 27 27 27 26 26 24 23 23 22 22 21 20 19 18 17 17 18 19 20 20 21 22 22 23 25 27 28 28 28 29 29 29 30 29 29 28 28 28 28 29 29 29 29 29 29 29 30 30 31 31 31 31 31
76 76 77 79 79 78 77 74 70 68 66 64 60 57 55 52 47 43 42 42 44 46 46 45 44 41 35 30 26 24 25 25 26 27 26 26 25 23 22 22 22 21 20 19 19 18 17 16 17 17 18 19 20 22 23 25 27 27 28 28 29 29 29 30 30 30 29 28 28 28 28 29 29 29 29 29 29 29 30 31 31 31 31 30 30
76 79 81 81 81 80 77 74 71 67 64 62 59 55 53 51 47 44 42 42 43 44 44 44 42 39 35 30 25 23 23 23 25 26 26 25 24 22 21 21 21 20 20 18 18 17 17 17 16 16 17 18 20 22 24 25 26 26 26 27 27 27 28 29 29 29 27 26 26 27 27 28 28 28 28 27 27 28 29 29 30 30 30 30 30
79 82 82 81 80 77 73 70 65 61 62 63 60 55 52 51 49 45 43 43 43 43 43 43 41 38 34 29 25 22 21 22 24 25 25 24 23 21 21 20 20 19 19 18 17 17 17 17 16 16 16 17 19 21 22 22 22 23 24 24 24 24 24 25 25 25 24 24 25 25 25 25 25 26 26 25 25 26 27 27 28 28 29 29 29
82 84 83 81 76 70 65 62 58 57 61 63 59 54 53 52 49 47 45 44 43 42 42 41 39 36 32 28 24 21 20 21 23 25 25 24 22 21 20 19 19 19 18 18 17 17 17 16 16 15 16 17 18 20 20 19 20 22 22 22 22 21 21 22 23 23 23 23 24 24 23 23 23 23 22 22 22 23 24 25 25 26 27 28 28
84 83 81 75 68 62 60 58 57 60 63 62 57 55 54 52 49 47 46 45 43 42 41 39 36 34 31 28 24 20 19 20 22 24 24 23 22 20 19 18 18 18 18 17 17 17 17 16 15 15 15 15 16 17 18 18 19 20 21 21 20 20 20 21 23 23 23 22 22 21 21 21 21 20 19 19 18 19 20 21 22 23 24 25 26
82 81 77 70 64 62 59 58 60 63 62 59 57 55 54 51 49 47 46 45 44 43 40 37 33 31 30 27 24 20 19 19 21 22 23 23 22 20 18 17 17 17 17 17 16 16 17 16 15 14 14 14 15 15 16 17 18 19 20 20 18 18 20 21 22 21 20 20 20 19 18 18 18 18 18 17 16 17 18 19 20 21 22 23 23
Wind_Direction
337 335 335 335 336 336 335 335 335 335 335 334 333 332 332 332 332 332 331 330 327 323 320 316 312 310 308 308 309 310 311 314 315 317 319 321 321 320 318 315 312 309 307 306 303 298 291 285 282 278 272 267 265 264 264 263 263 262 262 260 258 254 251 251 253 254 254 254 253 254 256 257 258 258 257 257 254 250 247 246 244 241 239 239 239
337 337 335 335 335 335 335 335 335 336 336 334 332 331 331 331 331 330 330 329 327 324 321 316 312 308 305 304 305 306 308 310 312 315 317 319 321 321 319 316 313 311 309 308 306 303 297 289 283 279 274 268 264 263 263 263 263 263 262 261 260 258 254 251 251 253 255 255 254 253 253 255 257 258 257 257 257 255 250 246 244 241 238 236 236
337 337 335 334 335 335 334 335 335 336 336 334 332 331 330 330 330 329 328 328 327 324 321 318 313 308 304 302 302 303 305 308 310 312 315 317 318 320 319 316 314 312 311 309 308 306 302 296 289 282 277 272 266 263 262 263 262 262 262 261 260 260 258 254 251 250 252 254 256 255 254 252 253 256 258 257 257 257 255 250 244 240 238 235 234
336 337 336 334 334 334 334 335 335 336 335 333 331 330 330 329 328 327 326 326 326 325 322 319 314 309 304 300 299 300 302 305 307 309 312 314 315 318 317 315 314 313 312 310 310 309 306 302 296 289 284 279 274 269 265 264 263 263 262 262 261 260 259 258 255 251 250 251 253 255 256 255 251 251 255 257 257 256 256 254 249 242 238 234 232
336 336 336 335 334 334 335 335 335 335 334 332 331 331 330 329 327 325 325 325 325 325 323 320 316 310 304 299 296 297 300 302 305 307 308 310 312 314 314 314 313 313 312 311 310 309 307 305 301 296 290 286 283 278 274 269 267 265 264 264 263 262 261 260 258 255 252 251 250 252 254 255 254 251 250 252 255 257 256 255 253 247 240 235 231
336 336 336 335 335 335 334 334 334 335 334 332 332 331 330 329 326 325 324 324 325 324 323 321 317 312 305 299 294 294 296 299 303 306 307 308 309 310 310 311 311 311 311 311 311 310 308 306 303 299 295 292 288 284 281 277 273 271 269 267 266 265 264 262 260 258 255 253 251 251 251 252 253 253 251 248 249 253 256 255 254 251 244 237 233
337 337 337 336 335 334 334 334 334 334 334 332 332 331 330 329 327 325 324 324 324 323 323 321 319 315 308 301 295 292 292 294 298 302 304 304 305 305 305 306 307 308 309 310 311 311 311 309 306 302 298 295 292 289 286 284 281 277 274 271 269 267 266 264 262 260 258 255 253 252 251 251 251 252 252 251 248 247 251 254 254 253 249 241 237
338 337 337 336 335 334 333 334 334 334 333 332 332 331 330 329 327 326 325 324 323 322 322 322 320 317 312 306 298 293 290 290 293 297 299 300 299 300 300 301 302 303 305 307 309 311 312 312 311 309 306 301 297 294 291 289 288 286 282 279 275 271 268 266 264 262 260 257 255 254 252 251 251 251 251 252 251 247 245 248 252 252 251 246 240
339 338 339 338 336 335 334 334 334 333 332 331 331 331 331 330 329 328 326 324 323 322 322 322 320 318 315 310 303 296 291 289 289 291 294 296 295 295 295 296 297 298 300 302 304 306 308 311 312 312 312 309 305 302 298 294 292 291 291 288 284 279 274 270 267 265 263 260 257 255 254 252 252 251 251 250 251 250 245 243 246 250 251 248 243
339 339 340 339 337 336 334 334 334 332 331 331 331 331 331 331 330 330 328 325 323 322 322 322 320 319 317 313 307 299 292 289 287 287 289 291 292 291 290 291 292 293 295 297 299 302 304 306 308 310 312 312 311 308 305 300 297 294 294 293 292 288 283 277 271 267 265 262 260 257 255 253 252 251 251 250 250 251 249 244 242 244 247 248 246
339 339 339 339 337 336 334 334 334 332 331 331 331 331 331 331 330 331 329 325 324 323 322 322 321 320 318 315 310 303 295 290 287 285 285 286 287 288 287 287 287 288 290 293 295 297 300 302 303 305 307 309 310 310 308 305 301 298 296 295 294 293 290 285 278 273 268 265 262 259 256 254 253 251 250 251 250 250 250 248 244 240 242 245 246
339 338 338 338 337 335 334 334 333 332 332 331 330 330 330 331 331 332 331 327 325 324 323 322 321 320 317 315 312 306 299 293 287 284 282 282 283 284 284 284 283 284 285 287 290 292 295 297 299 301 303 304 306 308 309 307 304 302 300 298 296 294 293 290 286 280 274 269 264 262 259 256 254 252 250 250 250 250 249 249 248 244 241 240 242
339 338 338 338 337 335 333 333 333 332 332 331 330 330 329 330 330 331 331 328 326 325 324 322 321 319 317 315 312 308 302 296 290 285 282 280 280 280 281 281 281 281 282 283 285 287 289 292 295 297 298 300 301 303 305 306 305 304 303 301 297 294 293 294 292 287 281 274 269 264 261 258 255 253 251 250 249 250 250 249 249 248 244 239 238
340 338 338 338 336 335 333 333 332 332 331 330 330 329 328 329 329 331 331 329 327 326 324 323 321 319 317 314 312 309 305 299 293 287 282 279 277 277 278 279 279 279 280 281 282 284 285 288 290 292 294 295 296 298 300 303 304 304 305 304 300 296 294 296 297 293 286 279 274 270 265 260 256 252 251 250 249 248 249 249 249 249 247 243 239
339 337 337 336 335 334 333 332 332 331 330 329 329 327 326 327 328 329 330 328 327 326 325 323 320 318 316 314 311 309 307 302 297 291 284 279 276 275 275 276 276 277 278 279 280 282 283 285 287 288 290 291 292 294 295 298 301 303 304 305 302 298 296 297 299 297 291 283 278 276 272 265 258 253 250 248 248 247 248 249 249 249 248 246 242
337 335 334 335 334 333 331 330 330 330 329 328 327 326 325 325 326 326 327 326 325 325 324 322 319 317 316 314 311 309 307 304 300 294 287 281 277 274 273 273 273 274 275 277 278 280 282 283 284 285 286 288 289 291 292 293 297 300 302 303 302 300 297 297 299 299 296 288 280 279 278 273 263 254 249 246 246 246 246 247 248 249 249 248 245
333 331 330 330 331 331 330 328 327 326 326 326 326 324 324 324 324 324 324 323 322 322 322 320 317 316 315 313 311 308 307 305 301 296 290 283 278 275 273 271 272 272 272 274 275 278 280 281 282 283 283 285 286 288 289 290 292 295 299 300 300 300 298 297 298 300 300 293 285 282 282 280 270 258 250 245 243 244 245 246 246 248 249 249 248
332 328 326 324 324 326 327 327 326 324 323 324 324 323 322 323 323 323 323 321 319 319 319 317 316 315 314 312 311 308 306 304 301 297 292 287 281 276 273 271 271 271 271 272 273 275 277 279 281 281 282 283 283 285 286 287 288 290 294 297 298 299 298 296 296 299 302 298 290 285 284 284 276 263 252 245 242 241 242 244 245 246 247 249 249
334 331 327 323 320 318 319 321 322 322 322 323 323 322 321 322 322 322 322 320 319 317 316 315 314 313 312 311 310 307 305 303 301 298 293 289 285 279 274 271 270 270 270 270 271 272 275 277 279 280 280 281 281 283 284 285 285 286 289 293 295 297 298 296 294 297 302 301 296 290 286 286 281 268 255 246 242 240 240 242 244 245 247 247 249
334 332 330 327 323 318 315 315 316 319 321 321 321 320 321 321 321 321 321 320 319 317 314 313 312 312 311 310 309 307 304 302 300 298 295 291 287 282 277 273 270 269 269 269 270 271 272 274 276 277 278 279 280 281 282 283 283 283 285 289 292 294 296 296 293 295 300 303 302 295 289 286 283 274 260 249 243 241 240 241 242 244 246 247 248
331 329 329 330 328 323 319 314 312 313 316 317 317 316 317 318 319 320 319 319 319 317 315 313 311 310 310 309 307 305 304 301 299 297 296 294 290 286 281 275 271 270 269 269 269 270 271 272 273 275 276 277 278 279 280 281 282 282 282 285 289 291 294 295 293 292 297 302 305 301 292 285 281 277 267 254 246 243 241 241 242 242 244 246 247
328 327 326 327 327 326 323 318 314 311 311 312 312 313 313 314 316 317 317 317 317 316 315 314 312 310 308 307 306 304 302 300 298 297 297 296 293 289 284 279 274 270 269 269 269 269 270 270 271 272 274 275 276 277 278 279 280 280 279 281 286 288 291 294 293 291 294 300 306 305 297 287 280 277 273 264 254 247 245 244 243 243 243 245 247
328 327 326 326 325 324 322 321 319 316 314 312 310 310 310 311 313 314 314 315 314 313 314 314 313 310 307 305 304 303 301 299 299 298 297 296 294 291 287 282 277 272 269 269 269 269 269 270 270 270 271 273 274 275 276 278 279 279 277 278 283 286 288 293 294 291 291 296 304 306 300 291 282 276 272 268 263 255 250 248 246 246 245 245 246
330 329 329 329 327 326 325 323 321 319 318 315 312 311 309 308 310 311 312 313 312 312 312 313 313 311 307 304 302 300 299 298 298 298 297 297 295 292 289 285 281 276 271 269 268 268 268 270 270 270 270 271 272 273 274 276 278 277 275 276 280 284 286 290 293 291 289 291 298 303 301 295 286 277 269 264 263 260 255 251 250 248 247 247 247
331 331 331 331 330 330 328 328 327 325 324 321 317 314 310 308 307 307 309 310 310 310 311 312 312 311 309 305 301 298 297 297 297 296 296 296 295 293 290 287 284 279 274 269 267 267 268 268 269 269 269 269 269 271 273 275 276 275 274 274 278 282 284 286 289 290 287 287 291 296 299 298 291 281 271 263 260 260 258 255 253 252 250 250 249
332 332 332 332 330 329 328 329 330 330 329 327 323 319 314 310 307 306 306 306 306 307 309 310 311 312 311 306 300 297 295 295 296 295 294 294 294 294 291 288 286 282 277 271 267 267 266 266 268 269 268 267 267 269 272 274 274 274 272 272 276 280 281 282 285 288 286 283 284 288 293 296 294 285 273 264 259 258 259 259 258 257 256 254 253
332 333 332 331 330 329 328 329 329 329 329 328 327 324 319 314 311 308 305 304 304 305 306 308 310 312 313 308 301 296 295 295 294 293 293 293 293 293 291 289 287 284 280 274 268 265 265 265 266 268 267 264 264 267 270 272 273 272 270 270 274 278 278 278 281 284 283 278 277 280 286 291 293 289 279 268 261 257 256 259 260 261 260 258 257
333 333 332 331 330 330 329 330 330 329 328 327 326 325 322 318 315 312 308 305 305 304 305 306 308 311 312 309 303 297 295 294 292 291 292 292 291 291 291 290 287 286 283 276 269 264 264 264 265 266 265 262 262 265 268 271 273 271 268 267 272 276 276 276 278 281 282 278 273 274 278 285 290 291 285 275 266 260 255 255 258 260 261 261 260
332 332 331 330 330 330 329 330 330 329 328 327 326 325 322 320 317 313 311 308 306 304 304 305 307 310 311 309 304 299 295 292 290 290 290 290 290 290 291 290 288 286 283 277 271 265 263 264 264 264 263 260 260 262 266 269 272 270 265 264 269 274 274 275 277 280 282 280 276 274 273 277 282 287 289 283 275 266 259 255 255 256 259 262 263
331 330 330 330 330 330 330 331 332 331 329 327 326 324 322 320 317 314 311 309 306 304 304 305 305 308 309 309 306 301 295 291 289 289 288 288 288 289 290 291 289 286 282 278 272 266 263 263 263 262 261 259 258 260 263 267 271 269 263 261 267 271 273 275 277 280 283 284 283 280 275 274 277 282 286 288 284 276 267 260 255 255 257 259 262
330 330 330 330 331 331 332 334 334 333 331 329 326 324 322 320 318 315 312 309 307 305 304 304 304 305 307 308 307 302 295 290 288 287 287 287 287 288 290 290 288 285 282 278 273 267 263 261 260 260 259 257 255 256 260 265 270 268 262 260 265 269 272 276 278 282 286 287 287 286 282 279 279 282 285 288 291 288 280 269 260 256 256 256 259
330 331 330 331 331 332 333 334 335 334 333 331 328 324 322 320 319 317 316 313 310 306 305 303 302 303 305 306 306 302 295 289 286 285 286 286 287 288 289 289 288 285 282 278 274 268 263 260 259 258 257 256 254 254 258 263 268 268 262 259 262 266 270 275 278 283 285 283 283 285 286 286 286 286 286 287 289 291 289 284 273 264 259 257 257
330 330 330 330 330 331 332 332 333 333 332 330 328 326 324 321 319 319 318 317 314 309 306 303 300 300 303 305 304 301 295 289 286 284 284 285 286 287 288 289 288 286 283 280 275 269 263 260 259 257 256 255 254 254 257 260 265 267 263 260 261 263 266 270 274 280 279 274 276 282 288 294 295 293 289 285 283 283 284 284 283 279 273 267 262
330 329 329 329 328 329 330 331 331 331 329 327 325 324 323 322 321 320 320 319 316 311 307 302 299 298 300 302 302 300 297 291 286 283 283 283 284 285 287 288 288 287 284 280 275 270 265 261 259 257 255 254 254 254 255 258 262 264 262 260 261 263 264 266 268 273 275 274 278 284 291 296 298 297 294 287 282 279 279 281 283 286 286 281 277
328 328 328 327 327 327 329 330 331 330 328 325 323 322 321 322 323 322 320 319 317 314 308 302 298 296 297 299 300 301 299 293 287 282 281 281 282 284 286 287 288 287 284 280 276 271 266 262 260 258 255 253 253 253 254 256 259 261 260 258 260 262 263 264 265 268 273 276 279 283 289 291 291 292 292 288 285 280 278 279 282 285 285 284 287
328 327 327 326 326 327 329 330 330 329 327 325 323 321 320 320 321 321 319 318 317 315 309 302 297 294 293 295 298 300 300 293 286 282 280 280 281 282 284 286 287 287 285 280 275 271 267 263 260 258 255 253 252 252 254 255 257 258 258 256 257 260 262 264 265 266 269 273 274 276 280 281 281 282 282 284 286 284 281 279 279 281 281 282 287
327 326 325 325 326 328 329 329 329 328 327 325 323 321 320 319 318 319 319 317 317 315 309 302 296 291 290 292 295 300 300 292 285 281 279 279 279 281 283 284 286 286 284 279 274 271 268 264 260 257 254 251 251 252 253 254 255 256 255 255 256 258 261 263 265 265 267 272 273 272 272 273 275 275 275 276 279 281 282 282 280 279 277 277 283
324 323 323 324 326 327 327 327 327 327 326 324 322 321 320 320 317 315 316 317 316 314 308 302 294 288 287 290 295 300 298 290 284 280 278 277 279 279 281 283 285 286 284 280 275 271 268 264 259 256 253 250 250 252 252 253 254 255 255 255 256 257 258 261 264 266 267 269 271 272 270 269 269 271 273 274 275 277 279 278 276 275 273 271 272
320 321 323 324 325 325 326 325 326 326 325 324 322 320 320 320 318 314 314 316 315 311 306 300 292 288 288 289 294 298 296 290 283 278 276 277 277 278 280 282 285 286 285 281 276 271 268 264 259 255 253 250 249 251 253 253 254 254 254 255 255 256 258 260 263 266 267 266 267 269 270 269 268 267 267 270 273 277 280 279 275 271 267 265 263
320 322 324 325 324 325 325 326 326 325 325 323 321 320 320 320 318 315 314 315 314 309 305 299 294 290 289 288 292 296 295 290 283 277 275 275 275 277 279 281 284 285 284 281 276 271 267 263 260 256 254 251 249 250 251 252 251 251 252 254 257 259 261 261 262 263 263 263 263 264 265 267 269 269 269 270 268 267 270 274 276 275 272 264 256
323 325 327 327 326 325 326 326 326 325 324 323 321 319 319 318 318 316 314 313 312 309 306 302 297 293 288 285 289 293 293 290 283 276 273 273 273 275 278 280 282 284 284 281 277 272 267 263 260 257 253 251 249 249 249 250 249 250 252 255 259 262 263 262 261 261 262 263 263 262 261 261 265 270 272 271 267 263 262 265 269 274 277 274 264
325 326 327 328 327 326 325 325 325 324 323 322 320 318 317 316 316 315 312 310 309 309 306 303 299 293 287 282 285 289 291 289 282 276 272 272 272 274 276 278 281 283 283 282 278 274 268 264 261 258 254 252 250 248 249 249 249 251 254 257 260 262 263 263 263 263 264 266 265 264 263 263 265 266 265 263 265 267 267 265 264 266 270 271 269
327 327 328 328 327 326 325 324 324 323 322 322 319 317 315 315 314 312 309 307 308 308 307 303 298 293 285 279 281 285 288 287 281 275 271 270 271 273 275 277 280 282 283 282 279 275 269 264 262 259 256 254 253 251 251 251 252 253 255 258 260 263 264 265 266 265 265 266 267 267 268 269 267 265 262 261 262 265 266 267 267 265 263 262 264
329 328 328 327 326 325 325 324 323 322 322 321 319 316 314 314 313 310 307 306 306 307 306 304 299 293 284 276 276 281 285 284 280 274 270 269 270 272 274 276 279 282 282 281 280 277 270 265 263 261 258 257 256 256 256 255 255 255 256 258 262 264 265 266 267 267 267 267 268 269 269 269 268 266 265 264 262 262 264 266 267 265 262 260 259
328 327 327 327 326 326 326 324 323 322 321 320 318 317 315 315 314 309 305 304 303 305 306 304 298 292 283 273 272 279 283 282 277 272 269 268 269 271 273 275 278 280 281 281 280 278 273 267 263 261 260 259 258 258 258 257 257 257 259 262 264 266 267 268 269 270 269 269 269 269 268 267 267 266 266 264 264 263 264 263 262 262 262 260 258
327 328 328 327 326 325 325 324 323 322 321 320 320 319 317 317 315 310 306 304 302 304 305 302 297 291 282 271 269 275 279 278 274 270 267 267 268 270 272 274 277 279 280 281 281 279 274 269 264 262 261 260 259 259 258 257 259 261 263 265 266 267 269 270 270 271 271 272 271 269 267 265 264 265 265 264 263 263 262 262 262 261 261 258 255
328 329 328 326 325 325 325 325 324 322 321 321 322 321 320 319 317 313 308 305 303 304 304 301 296 290 281 269 264 270 276 276 272 267 265 265 267 269 271 273 276 278 279 280 280 278 274 269 265 262 260 258 257 257 258 261 265 267 267 267 267 268 268 269 271 272 273 273 272 269 267 266 266 265 265 264 263 261 261 261 260 259 258 255 252
328 327 326 325 325 325 325 325 325 323 321 321 322 322 322 321 320 316 311 308 306 305 304 301 295 289 279 267 261 266 272 272 269 265 262 263 265 266 269 272 274 276 278 278 277 275 272 268 264 260 258 256 255 257 261 266 269 270 269 270 270 270 270 272 273 274 273 272 270 270 270 269 267 266 264 263 262 259 258 258 256 255 254 252 250
325 325 324 325 325 325 325 325 323 321 320 321 322 322 322 322 320 316 313 311 308 306 304 301 295 288 277 264 258 262 267 268 266 263 260 261 262 264 267 270 272 275 276 276 275 273 270 267 264 261 258 256 257 260 264 267 269 270 272 274 275 276 278 278 276 275 274 273 273 273 273 270 268 266 264 262 259 255 252 252 251 250 250 248 248
324 323 324 324 324 323 322 322 320 320 320 321 322 323 322 321 319 315 313 312 309 307 305 302 296 287 275 261 255 258 262 263 262 260 259 259 260 262 264 267 270 273 275 275 274 272 269 267 264 261 260 258 258 261 264 267 269 272 274 277 280 283 282 280 278 278 277 276 274 274 272 271 269 268 266 263 257 250 246 244 244 244 245 246 247
322 322 323 322 321 321 321 320 320 320 321 322 323 323 322 320 318 315 314 312 310 308 306 302 296 285 271 258 250 252 256 258 259 258 257 257 259 261 262 265 268 271 273 274 273 270 268 266 263 261 261 261 261 261 263 267 271 274 276 280 284 285 282 279 278 277 274 271 270 269 268 269 269 269 267 264 257 249 243 239 238 238 240 242 245